Victor Braga

Olheiro-Chefe - Parana
4 Abr 2027
Domingo
Processo

Personalidade

Adaptabilidade (6) Ambição (9) Controvérsia (20) Lealdade (12) Pressão (12) Profissionalismo (3) Espírito Esportivo (18) Temperamento (12)

Perfil

Estilo de Treinamento Democrático
Licença Continental B
Determinação 9
Gestão de Pessoas 9
Motivação 3
Disciplina 3
Satisfação no Trabalho
92%
Fadiga
0%
Função Olheiro-Chefe
Salário 65.6K p/s
Contrato 14.03.2030

Desempenho

Comportamento Bom
Eficácia do Treinamento
36%
Desenvolvimento do Jogador
20%
Prevenção de Lesões
20%
Implementação Tática
55%

Eventos Recentes

Participou de uma reunião de recrutamento 14d atrás
Participou de uma reunião de recrutamento 21d atrás
Participou de uma reunião de recrutamento 28d atrás
Participou de uma reunião de recrutamento 35d atrás
Participou de uma reunião de recrutamento 42d atrás
Participou de uma reunião de recrutamento 49d atrás
Participou de uma reunião de recrutamento 56d atrás
Participou de uma reunião de recrutamento 56d atrás

Monitorando agora

78
Jogador Clube Status Habilidade Confiança Observado Última observação Último voto
Paulo Henrique Maritimo Ativo 104 / 111 40% 2 01.02.2027 -
Alex Pinto Farense Ativo 102 / 106 40% 1 01.02.2027 -
Rubén Duarte Pumas UNAM Ativo 137 / 146 40% 1 01.02.2027 -
Caíque Gonçalves Vitória Ativo 125 / 115 40% 1 06.01.2027 -
Àlex Carbonell Penafiel Ativo 109 / 95 40% 1 06.01.2027 -
Dinis Rodrigues Porto Ativo 89 / 97 40% 1 06.01.2027 -
Jonathan Mutombo Torreense Ativo 106 / 117 40% 2 04.01.2027 -
Tiago Esgaio Arouca Ativo 123 / 134 40% 1 04.01.2027 -
Milton Valenzuela Atlas Ativo 126 / 115 40% 1 04.01.2027 -
Filipe Cruz Felgueiras Ativo 109 / 92 40% 1 30.12.2026 -
Christian Marques Tondela Ativo 118 / 103 40% 1 30.12.2026 -
Thorgan Nainggolan Mouscron Ativo 110 / 124 40% 1 22.12.2026 -
Pablo Bennevendo Pumas UNAM Ativo 112 / 107 40% 1 22.12.2026 -
Cohen Bramall Cambridge United Ativo 111 / 117 40% 1 22.12.2026 -
Samuel Pires São Paulo Perdido 90 / 86 72% 1 21.12.2026 Aprovar
Djé Santa Clara Ativo 97 / 112 40% 1 14.12.2026 -
João Oliveira Feirense Ativo 86 / 96 40% 1 14.12.2026 -
Junior Hernández AIK Ativo 108 / 120 40% 1 14.12.2026 -
Roger Gabriel Bahia Perdido 100 / 113 72% 1 07.12.2026 Aprovar
Ben Elliott Arab Contractors Ativo 110 / 93 40% 1 07.12.2026 -
Felipe Silva Porto Ativo 120 / 126 40% 1 07.12.2026 -
Yeferson Rodallega Envigado Ativo 111 / 122 40% 1 07.12.2026 -
Afonso Peixoto Felgueiras Ativo 111 / 109 40% 1 06.12.2026 -
Alejandro Alfaro Torreense Ativo 104 / 115 40% 1 06.12.2026 -
Jarleysom Portimonense Ativo 118 / 99 40% 1 06.12.2026 -
Arnau Casas Torreense Ativo 115 / 129 40% 2 05.12.2026 -
Vladan Danilović Maritimo Ativo 110 / 120 40% 2 05.12.2026 -
Miguel Pires Vizela Ativo 121 / 97 40% 2 05.12.2026 -
Lewis Freestone Stevenage Ativo 114 / 101 40% 1 04.12.2026 -
Ktatau Chaves Ativo 91 / 83 40% 1 04.12.2026 -
Conrad Wallem Valerenga Ativo 128 / 116 40% 2 03.12.2026 -
Leandro Dias Pacos de Ferreira Ativo 93 / 98 40% 1 03.12.2026 -
Kevin Palacios Santos Laguna Ativo 115 / 98 40% 1 03.12.2026 -
Thauan Lara Portimonense Ativo 100 / 107 40% 2 02.12.2026 -
Jackson Porozo Tijuana Ativo 116 / 120 40% 1 02.12.2026 -
Dinis Pinto Moreirense Ativo 124 / 128 40% 1 02.12.2026 -
Nadson Santos Perdido 95 / 106 71% 1 01.12.2026 -
Miguel Teixeira Lusitânia Lourosa Ativo 110 / 117 40% 1 30.11.2026 -
Ilja Agapov Ufa Ativo 105 / 125 40% 1 30.11.2026 -
Rafael Brito Plymouth Argyle Ativo 96 / 107 40% 1 06.11.2026 Mais informações
Diego Hernández Aguilas Doradas Ativo 119 / 127 40% 1 06.11.2026 Mais informações
Lucas Barros Vojvodina Ativo 98 / 100 40% 1 06.11.2026 -
Afonso Assis Moreirense Ativo 97 / 110 40% 1 03.11.2026 -
Tamás Nikitscher Rio Ave Ativo 98 / 94 40% 1 03.11.2026 -
Marcos Peña Famalicao Ativo 120 / 113 40% 1 03.11.2026 -
Víctor Felipe Méndez Colo-Colo Ativo 117 / 123 40% 1 02.11.2026 -
Mateo Garavito Deportivo Pasto Ativo 113 / 119 40% 1 02.11.2026 -
James Dornelly Peterborough United Ativo 89 / 115 40% 1 02.11.2026 -
Igor Formiga Mirassol Ativo 118 / 107 40% 2 11.10.2026 -
Jhomier Guerrero Millonarios Ativo 117 / 120 40% 2 11.10.2026 -
Kamil Conteh Bristol Rovers Ativo 96 / 118 40% 1 10.10.2026 -
Pedro Pedraza Pachuca Ativo 121 / 135 40% 1 09.10.2026 -
Samuel Lucero Defensa y Justicia Ativo 119 / 108 40% 1 09.10.2026 -
Ismael Cortez Gimnasia y Esgrima Ativo 110 / 115 40% 1 09.10.2026 -
Marcos Enrique Tristán Suárez Ativo 108 / 110 40% 1 06.10.2026 -
Yaya Sithole Tondela Ativo 98 / 95 40% 1 06.10.2026 -
Tiago Ferreyra Mitre Ativo 104 / 104 40% 1 05.10.2026 -
Antef Tsoungui Estoril Praia Ativo 106 / 128 40% 1 05.10.2026 -
Rayan Lucas Alverca Ativo 117 / 115 40% 1 04.10.2026 -
Bright Godwin Vizela Ativo 111 / 106 40% 1 04.10.2026 -
Nikos Michelis Académico de Viseu Ativo 103 / 115 40% 1 04.10.2026 -
Toni Herrero Farense Ativo 91 / 104 40% 1 02.10.2026 -
Gábor Szalai Ferencvaros Ativo 114 / 102 40% 1 10.08.2026 -
Tokinho Dória Lusitânia Lourosa Ativo 115 / 111 40% 1 10.08.2026 -
José Sampaio Vizela Ativo 97 / 117 40% 1 10.08.2026 -
Eboué Kouassi Leiria Ativo 92 / 91 40% 1 09.08.2026 -
Mimito Biai Lusitânia Lourosa Ativo 111 / 111 40% 1 09.08.2026 -
Jónatas Noro Braga Ativo 87 / 104 40% 1 09.08.2026 -
Lucas Agazzi Defensor Sporting Ativo 126 / 126 40% 1 09.08.2026 -
Christian Rivera Pachuca Ativo 122 / 114 40% 1 09.08.2026 -
João Teixeira Porto Ativo 113 / 104 40% 1 07.08.2026 -
Ibrahima Guirassy Leiria Ativo 100 / 124 40% 1 07.08.2026 -
Yann Bodiger Ceuta Ativo 123 / 119 40% 1 07.08.2026 -
Mika Lusitânia Lourosa Ativo 99 / 93 40% 1 04.08.2026 -
Juan Muñoz Leiria Ativo 118 / 110 40% 1 04.08.2026 -
Facundo Castro Nueva Chicago Ativo 121 / 106 40% 1 01.08.2026 -
Enzo Cabrera Danubio Ativo 103 / 121 40% 1 01.08.2026 -
Eric Ramírez Unión de Santa Fe Ativo 128 / 117 40% 1 01.08.2026 -